Weather in Oropesa del Mar

Spain     40°05′40″N   0°08′07″E
temp.,
°C
wind,
m/s
gust,
m/s
humid.,
%
clouds,
%
prec.,
mm/h
press.,
hPa
HPBL,
m
17 may, tue
tue1723:00+21s11790 0.0 102011
02:00+21ese11770 0.0 101912
05:00+21ssw22740 0.0 101883
08:00+21sw11736 0.0 101977
11:00+22se11681 0.0 1019103
14:00+22se33680 0.0 1019264
17:00+22sse32760 0.0 1018265
20:00+22s227779 0.0 1017176
18 may, wed
wed1823:00+22ssw347798 0.0 101865
02:00+22sw337375 0.0 101840
05:00+22sse227583 0.0 101718
08:00+22ene3376100 0.0 101857
11:00+22ene4579100 0.0 1020185
14:00+22e347799 0.0 1019239
17:00+22sse4474100 0.0 1018193
20:00+23n007298 0.0 101858
19 may, thu
thu1923:00+22ssw12736 0.0 101911
02:00+23ssw227066 0.0 101915
05:00+22s22725 0.0 101924
08:00+22s117621 0.0 102112
11:00+22ese117289 0.0 102246
14:00+23ese23705 0.0 1022232
17:00+23ese23675 0.0 1021270
20:00+23e11725 0.0 102250
20 may, fri
fri2023:00+23ene11780 0.0 102312
02:00+22ne33775 0.0 102233
05:00+22ene117692 0.0 102314
08:00+22ese127299 0.0 102424
11:00+22nne0064100 0.0 102463
14:00+23ene1155100 0.0 1024149
17:00+23e1164100 0.0 102257
20:00+23se2267100 0.0 102228
21 may, sat
sat2123:00+23s227270 0.0 102211
02:00+23s227317 0.0 102118
05:00+22s227456 0.0 102019
08:00+22ssw11746 0.0 102013
11:00+22sse226869 0.0 102070
14:00+22s33705 0.0 1019189
17:00+23s346943 0.0 1017152
20:00+23ssw44706 0.0 101669